Location: Flensburg
(54.6357°N, 9.5142°E)
Time: 16:02:13
(UTC+01:00)

ISS - Pass Details

Date: 16 November 2017
Orbit: 402 x 407 km, 51.6° (Epoch: 22 November)

Event Time Altitude Azimuth Distance (km) Brightness Sun altitude
Exits shadow 05:38:09 12° 190° (S) 1,338 -1.3 -19.3°
Drops below altitude 10° 05:38:42 10° 181° (S) 1,452 -1.0 -19.2°
Sets 05:41:28 0° 155° (SSE) 2,307 0.4 -18.8°
